User: anonymous   Login
Location: Valdosta
(30.8330°N, 83.2790°W)
Time: 01:35:23
(UTC-04:00)
Language:

Oscar 19 - Orbit

View from above orbital plane
View from above orbital plane
View from above satellite
View from above satellite

Ground track
Ground track

The orbit data is extracted from the following two-line orbital elements,

1 20442U 90005G   16183.80020823 -.00000022  00000-0  79480-5 0  9996
2 20442  98.5438 118.5390 0012953 101.6934 258.5704 14.32820817381449
Epoch (UTC): 01 July 2016 19:12:17
Eccentricity: 0.0012953
inclination: 98.5438°
perigee height: 773 km
apogee height: 791 km
right ascension of ascending node: 118.5390°
argument of perigee: 101.6934°
revolutions per day: 14.32820817
mean anomaly at epoch: 258.5704°
orbit number at epoch: 38144

The dashed part of the orbit path shows where the satellite is in the earth's shadow,  

DLR